Погода в Калининграде

Погода в Калининграде : погода сейчас, прогноз погоды и архив. Всё, что Вы хотите узнать о погоде в Калининграде!

Хотите узнать прогноз погоды в Калининграде? Тогда Вам сюда: Погода в Калининграде

Поиск расширенной информации на нашем сайте:

Другие новости

Новости СМИ2

Главная страница сайта

Новости сайта

03.07.2017

Напоминаем, что на нашем специализированном сайте Метеоцентр.Азия вы можете получить высокодетализированные автоматические прогнозы погоды по пунктам России, СНГ и мира в авиационном формате (включающие направление и скорость ветра, видимость, явления погоды, количество и форму облачности, нижнюю и верхнюю границу облачности).


Погода в Калининграде - сегодня

Время (UTC), дата Ветер
(°,м/с) 
Видим.   Явления Облачность Т
(°С)
Тd
(°С)
f(%) Тe
(°С)
Pmin
(гПа)
dP
(гПа)
Po
(мм)
O2
(г/м3)
Тmin Tmax R s Состояние
почвы
03 22.06.18 200 (Ю) 1-4{08}  10 км  {дождь}  9/4 300 м средняя 
[Cu med, cong|Ac trans]
+11.1 +8.7 85 +12  1007.4  0.8  754  290  +11.1       
03 23.06.18 170 (Ю) 1-3{04}  4000 м  дымка  3/0 средняя 
[Ac trans]
+10.2 +8.8 91 +11  1013  -0.3  758  293  +10         
03 24.06.18 тихо () -0{01}  4000 м  дымка  8/6 600 м верхняя 
[Cu Sc|Ci fib]
+9.5 +8.8 95 +10  1011.8  -0.8  757  293  +7.4    0.3     
03 25.06.18 040 (СВ) 1-2{04}  4000 м  слаб. ливневой дождь  10/5 300 м кучево-дожд., средняя 
[Cb cap|Ac As]
+11.3 +10.5 95 +14  1013.7  0.4  758  291  +11.2       
03 26.06.18 тихо () -0{02}  4000 м  дымка  9/9 600 м 
[Sc]
+12.5 +12.2 98 +16  1018.8  0.5  762  291  +11.8       
03 27.06.18 360 (С) 1-1{02}  4000 м  дымка  5/0 верхняя 
[Ci fib]
+12.2 +11.8 97 +16  1025.9  0.6  767  294  +11.4         
03 28.06.18 030 (СВ) 1-3{04}  10 км    3/0 верхняя 
[Ci fib]
+15.5 +11.2 76 +19  1025.1  -0.5  767  290  +15.3         
03 29.06.18 300 (СЗ) 1-2{05}  10 км    9/0 верхняя 
[Ci fib]
+15.2 +12.5 84 +21  1014  -1.4  759  287  +15.2         
03 30.06.18 360 (С) 2-6{08}  10 км    9/9 600 м 
[Sc]
+13.3 +8.1 71 +14  1014.8  0.1  759  290  +13.3         
03 01.07.18 010 (С) 2-4{05}  10 км    9/3 600 м средняя 
[Cu med, cong|Ac trans]
+13 +8.5 74 +13  1017.1  761  291  +13         
03 02.07.18 340 (С) 4-11{11}  10 км    10/10 600 м 
[Cu Sc]
+12.7 +9.9 83 +13  1011.7  -1.3  757  290  +12.6         
03 03.07.18 310 (СЗ) 1-4{06}  4000 м  слаб. дождь{морось}  10/10 300 м 
[Frnb|Ns]
+12.3 +11.7 96 +17  1011.1  756  289  +11.6       
03 04.07.18 300 (СЗ) 1-2{03}  4000 м  дымка  10/10 600 м 
[Sc]
+15.1 +13.4 90 +22  1010.6  756  286  +13.4         
03 05.07.18 тихо () -0{03}  4000 м  дымка  ясно 
+12.5 +11.6 94 +16  1009.2  -0.9  755  289  +12.5         
03 06.07.18 280 (З) 1-2{04}  4000 м  дымка  9/9 600 м 
[Sc]
+16 +14.6 91 +25  1008.9  -0.2  755  284  +15.1         
03 07.07.18 290 (З) 1-2{03}  4000 м  дымка  ясно 
+14.8 +13.6 93 +22  1013  -0.3  758  287  +14.5         
03 08.07.18 350 (С) 2-4{05}  10 км  {ливн. осадки}  8/3 300 м верхняя 
[Cu Sc|Ci fib]
+15.1 +12.6 85 +20  1016.6  0.1  761  288  +14.8    0.0     
03 09.07.18 тихо () -0{03}  2000 м  дымка  ясно 
+13.9 +13.5 97 +20  1016.8  -0.5  761  289  +12.6         
03 10.07.18 030 (СВ) 1-1{03}  4000 м  дымка  9/8 600 м средняя 
[Cu Sc|Ac trans]
+16.4 +15.5 94 +27  1016.8  761  286  +16.3         
03 11.07.18 тихо () -0{01}  4000 м  дымка  6/0 верхняя 
[Ci fib]
+14.3 +13.9 97 +21  1015.8  -0.3  760  288  +14.2         
03 12.07.18 тихо () -0{03}  4000 м  дымка  10/10 300 м 
[Sc]
+17.6 +15.6 88 +27  1012.4  -0.2  757  283  +17.2    0.0     
03 13.07.18 тихо () -0{03}  4000 м  дымка  10/10 600 м 
[Sc]
+17.2 +16.6 96 +29  1010.9  -0.3  756  283  +16.9         
03 14.07.18 330 (СЗ) 1-4{05}  4000 м  дымка  10/10 600 м 
[Sc]
+17.8 +16.8 94 +31  1010.9  -0.6  756  282  +17.4         
03 15.07.18 300 (СЗ) 1-3{05}  4000 м  дымка  6/0 средняя, верхняя 
[Ac trans|Ci fib]
+17.2 +15.9 92 +29  1012.1  -0.5  757  284  +17.1         
03 16.07.18 340 (С) 1-3{05}  4000 м  дымка  9/9 300 м 
[Cu Sc]
+18.4 +16.4 88 +31  1012  -0.3  757  282  +18    0.9     
Время (UTC), дата Ветер
(°,м/с) 
Видим.   Явления Облачность Т
(°С)
Тd
(°С)
f(%) Тe
(°С)
Pmin
(гПа)
dP
(гПа)
Po
(мм)
O2
(г/м3)
Тmin Tmax R s Состояние
почвы

Для получения пояснительной информации подведите курсор к названию столбца.

ПОГОДА в Калининграде - архив

Всё, что Вы хотите узнать о погоде в Калининграде - удобно и подробно!

Выберите нужную дату (начиная с 1 января 2015* года) и нажмите кнопку "Найти".
Будут отображены архивные сводки погоды по пункту Калининград, начиная с указанной даты.


Отображать данные в формате CSV (для использования в таблицах Excel)


Внимание! Наш архив погоды предназначен исключительно для личного некоммерческого использования в познавательных целях. Если Вам необходимы официальные справки о состоянии погоды (для производственных, юридических, коммерческих и т.п. целей), обращайтесь в органы Росгидромета.

*Примечание: данная дата относится к архиву по метеостанциям СССР (Россия, СНГ, Балтия).
Архив по метеостанциям Зарубежной Европы и Азии (кроме Китая) хранится 10 дней, по другим регионам земного шара (Китай, Африка, Америка, Австралия, Океания) - 1 день.

Калининград - район местоположения метеостанции


Название, широта, долгота, высота метеостанции:
Калининград (город) 54.7°ш. 20.6°д. 21 м над ур. моря [Российская Федерация]

Дополнительная информация

В oтличие oт бoльшинства пoгoдных сайтoв мы публикуем пoдрoбную метеoинфoрмацию в детальнoм прoфессиoнальнoм фoрмате.

Характеристики температуры и влажнoсти вoздуха измеряются на высoте 2 м в тени вдали oт зданий и деревьев.
Скoрoсть ветра измеряется на высoте 10 м (на урoвне рoста челoвека скoрoсть ветра ниже в 1.5-2 раза). Если метеoстанция нахoдится в гoрoде или в лесу, тo скoрoсть ветра занижена на 2-4 м/с пo сравнению с oткрытым местoм. Скoрoсть ветра над акватoриями крупных рек и oзёр, а также на вершинах хoлмoв на 2-5 м/с выше, чем в oбычных услoвиях.
Атмoсфернoе давление в разных тoчках местнoсти мoжет значительнo oтличаться oт давления на метеoстанции, в зависимoсти oт услoвий рельефа (при пoдъёме на 10 м давление пoнижается примернo на 1 мм рт.ст.).